AZU2622 SBGR-SBPA

Flight info

Callsign AZU2622
Flight time 1h 39m
Altitude 34000
Route UBSOD UZ38 VUKMO
Aircraft A20N/M-SDE2E3FGHIRWXY/LB1

Departure

Time 2026-05-05 11:52
Airport São Paulo/Guarulhos–Governor André Franco Montoro International Airport (SBGR)

Arrival

Time 2026-05-05 13:31
Airport Porto Alegre-Salgado Filho International Airport (SBPA)
Time Latitude Longitude Altitude Speed Heading
2026-05-05 11:20 -23.43100 -46.48867 2454 ft 0 kts 274°
2026-05-05 11:44 -23.43100 -46.48865 2454 ft 2 kts 274°
2026-05-05 11:44 -23.43102 -46.48847 2461 ft 2 kts 274°
2026-05-05 11:44 -23.43103 -46.48828 2460 ft 2 kts 274°
2026-05-05 11:45 -23.43104 -46.48810 2460 ft 2 kts 231°
2026-05-05 11:45 -23.43095 -46.48801 2463 ft 0 kts 188°
2026-05-05 11:47 -23.43099 -46.48802 2462 ft 2 kts 188°
2026-05-05 11:47 -23.43134 -46.48800 2461 ft 6 kts 172°
2026-05-05 11:48 -23.43170 -46.48697 2457 ft 10 kts 95°
2026-05-05 11:48 -23.43177 -46.48618 2454 ft 9 kts 96°
2026-05-05 11:48 -23.43184 -46.48541 2460 ft 9 kts 95°
2026-05-05 11:49 -23.43188 -46.48493 2454 ft 8 kts 95°
2026-05-05 11:49 -23.43193 -46.48423 2454 ft 10 kts 96°
2026-05-05 11:49 -23.43243 -46.48382 2460 ft 11 kts 165°
2026-05-05 11:49 -23.43307 -46.48362 2459 ft 8 kts 162°
2026-05-05 11:50 -23.43365 -46.48343 2458 ft 9 kts 163°
2026-05-05 11:50 -23.43408 -46.48330 2458 ft 0 kts 164°
2026-05-05 11:50 -23.43417 -46.48316 2457 ft 5 kts 117°
2026-05-05 11:50 -23.43415 -46.48284 2454 ft 4 kts 78°
2026-05-05 11:51 -23.43405 -46.48244 2457 ft 12 kts 73°
2026-05-05 11:51 -23.43309 -46.47893 2459 ft 82 kts 73°
2026-05-05 11:51 -23.43094 -46.47101 2463 ft 134 kts 73°
2026-05-05 11:51 -23.42794 -46.45998 2574 ft 161 kts 75°
2026-05-05 11:52 -23.42476 -46.44816 3111 ft 169 kts 73°
2026-05-05 11:52 -23.42106 -46.43518 3344 ft 189 kts 71°
2026-05-05 11:52 -23.41691 -46.42097 3622 ft 205 kts 71°
2026-05-05 11:52 -23.41242 -46.40545 3897 ft 226 kts 70°
2026-05-05 11:53 -23.40738 -46.38837 4162 ft 249 kts 70°
2026-05-05 11:53 -23.40255 -46.36956 4583 ft 265 kts 81°
2026-05-05 11:53 -23.40379 -46.34941 5220 ft 272 kts 106°
2026-05-05 11:53 -23.41005 -46.32987 5924 ft 275 kts 110°
2026-05-05 11:54 -23.41655 -46.31026 6661 ft 276 kts 110°
2026-05-05 11:54 -23.42309 -46.29052 7349 ft 278 kts 110°
2026-05-05 11:54 -23.43095 -46.27130 8022 ft 279 kts 126°
2026-05-05 11:54 -23.44501 -46.25699 8689 ft 279 kts 152°
2026-05-05 11:55 -23.46340 -46.25091 9375 ft 278 kts 178°
2026-05-05 11:55 -23.48262 -46.25318 10057 ft 279 kts 191°
2026-05-05 11:55 -23.50178 -46.25711 10679 ft 281 kts 191°
2026-05-05 11:55 -23.52113 -46.26120 11249 ft 285 kts 193°
2026-05-05 11:56 -23.53958 -46.26926 11811 ft 289 kts 213°
2026-05-05 11:56 -23.55450 -46.28402 12412 ft 292 kts 226°
2026-05-05 11:56 -23.56828 -46.30042 12991 ft 295 kts 226°
2026-05-05 11:56 -23.58209 -46.31707 13582 ft 297 kts 227°
2026-05-05 11:57 -23.59599 -46.33394 14128 ft 301 kts 227°
2026-05-05 11:57 -23.60990 -46.35081 14617 ft 303 kts 227°
2026-05-05 11:57 -23.62407 -46.36798 15111 ft 306 kts 227°
2026-05-05 11:57 -23.63815 -46.38502 15622 ft 307 kts 227°
2026-05-05 11:58 -23.65251 -46.40236 16128 ft 309 kts 227°
2026-05-05 11:58 -23.66694 -46.41979 16632 ft 310 kts 227°
2026-05-05 11:58 -23.68144 -46.43733 17128 ft 312 kts 227°
2026-05-05 11:58 -23.69601 -46.45494 17642 ft 314 kts 227°
2026-05-05 11:59 -23.71068 -46.47269 18170 ft 316 kts 227°
2026-05-05 11:59 -23.72542 -46.49056 18684 ft 318 kts 227°
2026-05-05 11:59 -23.74027 -46.50853 19137 ft 321 kts 226°
2026-05-05 11:59 -23.75556 -46.52703 19257 ft 337 kts 226°
2026-05-05 12:00 -23.77168 -46.54654 19373 ft 355 kts 226°
2026-05-05 12:00 -23.78857 -46.56700 19670 ft 368 kts 226°
2026-05-05 12:00 -23.80583 -46.58794 20225 ft 373 kts 226°
2026-05-05 12:00 -23.82327 -46.60908 20858 ft 376 kts 226°
2026-05-05 12:01 -23.84081 -46.63036 21485 ft 379 kts 226°
2026-05-05 12:01 -23.85852 -46.65186 22098 ft 382 kts 226°
2026-05-05 12:01 -23.87636 -46.67354 22722 ft 385 kts 226°
2026-05-05 12:01 -23.89434 -46.69539 23334 ft 388 kts 226°
2026-05-05 12:02 -23.91241 -46.71736 23902 ft 391 kts 226°
2026-05-05 12:02 -23.93065 -46.73955 24429 ft 393 kts 226°
2026-05-05 12:02 -23.94900 -46.76188 24954 ft 396 kts 226°
2026-05-05 12:02 -23.96744 -46.78434 25490 ft 398 kts 227°
2026-05-05 12:03 -23.98597 -46.80691 26036 ft 400 kts 227°
2026-05-05 12:03 -24.00454 -46.82955 26557 ft 402 kts 227°
2026-05-05 12:03 -24.02326 -46.85234 27090 ft 403 kts 227°
2026-05-05 12:03 -24.03571 -46.86751 27438 ft 405 kts 227°
2026-05-05 12:04 -24.06095 -46.89829 28117 ft 408 kts 228°
2026-05-05 12:04 -24.07347 -46.91360 28462 ft 409 kts 228°
2026-05-05 12:04 -24.09248 -46.93689 28958 ft 411 kts 228°
2026-05-05 12:04 -24.11159 -46.96030 29458 ft 413 kts 228°
2026-05-05 12:05 -24.13076 -46.98377 29935 ft 415 kts 228°
2026-05-05 12:05 -24.15006 -47.00737 30411 ft 417 kts 228°
2026-05-05 12:05 -24.16943 -47.03105 30803 ft 418 kts 228°
2026-05-05 12:05 -24.18888 -47.05484 31172 ft 420 kts 228°
2026-05-05 12:06 -24.20841 -47.07873 31557 ft 422 kts 228°
2026-05-05 12:06 -24.22797 -47.10265 31978 ft 422 kts 228°
2026-05-05 12:06 -24.24753 -47.12652 32525 ft 419 kts 227°
2026-05-05 12:06 -24.26891 -47.14814 33055 ft 418 kts 218°
2026-05-05 12:07 -24.29296 -47.16591 33587 ft 416 kts 213°
2026-05-05 12:07 -24.31735 -47.18277 34126 ft 414 kts 213°
2026-05-05 12:07 -24.34163 -47.19955 34637 ft 411 kts 213°
2026-05-05 12:07 -24.36572 -47.21624 35164 ft 408 kts 214°
2026-05-05 12:08 -24.38962 -47.23284 35640 ft 405 kts 214°
2026-05-05 12:08 -24.41337 -47.24936 36110 ft 403 kts 214°
2026-05-05 12:08 -24.43691 -47.26578 36543 ft 401 kts 214°
2026-05-05 12:08 -24.46040 -47.28213 36956 ft 399 kts 214°
2026-05-05 12:09 -24.48347 -47.29818 37357 ft 397 kts 214°
2026-05-05 12:09 -24.50673 -47.31439 37761 ft 395 kts 214°
2026-05-05 12:09 -24.53016 -47.33072 38108 ft 394 kts 214°
2026-05-05 12:09 -24.55299 -47.34667 38191 ft 393 kts 215°
2026-05-05 12:10 -24.59911 -47.37879 38197 ft 392 kts 215°
2026-05-05 12:10 -24.64499 -47.41087 38197 ft 391 kts 215°
2026-05-05 12:11 -24.69084 -47.44297 38194 ft 390 kts 215°
2026-05-05 12:11 -24.73664 -47.47501 38197 ft 390 kts 215°
2026-05-05 12:12 -24.78249 -47.50713 38202 ft 391 kts 215°
2026-05-05 12:12 -24.82832 -47.53927 38212 ft 391 kts 215°
2026-05-05 12:13 -24.87425 -47.57147 38210 ft 391 kts 215°
2026-05-05 12:13 -24.92020 -47.60373 38201 ft 392 kts 215°
2026-05-05 12:14 -24.96614 -47.63591 38207 ft 391 kts 215°
2026-05-05 12:14 -25.01209 -47.66816 38209 ft 391 kts 215°
2026-05-05 12:15 -25.05793 -47.70046 38208 ft 391 kts 215°
2026-05-05 12:15 -25.10381 -47.73282 38209 ft 391 kts 215°
2026-05-05 12:16 -25.14964 -47.76516 38219 ft 391 kts 215°
2026-05-05 12:16 -25.19530 -47.79732 38209 ft 392 kts 215°
2026-05-05 12:17 -25.24157 -47.82989 38205 ft 392 kts 215°
2026-05-05 12:17 -25.28724 -47.86213 38210 ft 392 kts 215°
2026-05-05 12:18 -25.33313 -47.89471 38207 ft 392 kts 215°
2026-05-05 12:18 -25.37895 -47.92729 38205 ft 392 kts 215°
2026-05-05 12:19 -25.42479 -47.95982 38212 ft 392 kts 215°
2026-05-05 12:19 -25.47069 -47.99242 38208 ft 392 kts 215°
2026-05-05 12:20 -25.51656 -48.02513 38210 ft 392 kts 215°
2026-05-05 12:20 -25.56243 -48.05771 38209 ft 392 kts 215°
2026-05-05 12:21 -25.60835 -48.09030 38206 ft 392 kts 215°
2026-05-05 12:21 -25.65419 -48.12290 38206 ft 392 kts 215°
2026-05-05 12:22 -25.70005 -48.15558 38206 ft 392 kts 215°
2026-05-05 12:22 -25.74588 -48.18820 38220 ft 392 kts 216°
2026-05-05 12:23 -25.79147 -48.22067 38213 ft 392 kts 216°
2026-05-05 12:23 -25.83731 -48.25347 38211 ft 392 kts 216°
2026-05-05 12:24 -25.88312 -48.28617 38212 ft 392 kts 215°
2026-05-05 12:24 -25.92900 -48.31886 38211 ft 392 kts 216°
2026-05-05 12:25 -25.97477 -48.35160 38210 ft 391 kts 216°
2026-05-05 12:25 -26.02056 -48.38443 38209 ft 391 kts 216°
2026-05-05 12:26 -26.06628 -48.41726 38219 ft 391 kts 216°
2026-05-05 12:26 -26.11209 -48.45008 38208 ft 391 kts 216°
2026-05-05 12:27 -26.15784 -48.48286 38213 ft 391 kts 216°
2026-05-05 12:27 -26.20357 -48.51578 38211 ft 391 kts 216°
2026-05-05 12:28 -26.24926 -48.54861 38211 ft 391 kts 216°
2026-05-05 12:28 -26.29469 -48.58128 38215 ft 391 kts 216°
2026-05-05 12:29 -26.34037 -48.61425 38211 ft 391 kts 216°
2026-05-05 12:29 -26.38599 -48.64721 38221 ft 391 kts 216°
2026-05-05 12:30 -26.43161 -48.68027 38221 ft 391 kts 216°
2026-05-05 12:30 -26.47718 -48.71324 38219 ft 390 kts 216°
2026-05-05 12:31 -26.52260 -48.74651 38219 ft 390 kts 216°
2026-05-05 12:31 -26.56782 -48.77996 38219 ft 390 kts 216°
2026-05-05 12:32 -26.61306 -48.81350 38217 ft 390 kts 216°
2026-05-05 12:32 -26.65829 -48.84693 38231 ft 390 kts 216°
2026-05-05 12:33 -26.70371 -48.88022 38225 ft 390 kts 216°
2026-05-05 12:33 -26.74922 -48.91331 38225 ft 390 kts 216°
2026-05-05 12:34 -26.79445 -48.94628 38229 ft 390 kts 216°
2026-05-05 12:34 -26.84025 -48.97975 38219 ft 390 kts 216°
2026-05-05 12:35 -26.88537 -49.01286 38220 ft 391 kts 216°
2026-05-05 12:35 -26.93085 -49.04620 38223 ft 390 kts 216°
2026-05-05 12:36 -26.97628 -49.07954 38225 ft 390 kts 216°
2026-05-05 12:36 -27.02173 -49.11292 38227 ft 390 kts 216°
2026-05-05 12:37 -27.06708 -49.14628 38229 ft 390 kts 216°
2026-05-05 12:37 -27.11247 -49.17974 38243 ft 390 kts 216°
2026-05-05 12:38 -27.15782 -49.21313 38244 ft 390 kts 216°
2026-05-05 12:38 -27.20320 -49.24657 38245 ft 390 kts 216°
2026-05-05 12:39 -27.24858 -49.28000 38253 ft 390 kts 216°
2026-05-05 12:39 -27.29388 -49.31347 38264 ft 390 kts 216°
2026-05-05 12:40 -27.33919 -49.34698 38259 ft 390 kts 216°
2026-05-05 12:40 -27.38441 -49.38047 38270 ft 389 kts 216°
2026-05-05 12:41 -27.42934 -49.41382 38265 ft 389 kts 216°
2026-05-05 12:41 -27.47453 -49.44730 38273 ft 389 kts 216°
2026-05-05 12:42 -27.51976 -49.48080 38268 ft 389 kts 216°
2026-05-05 12:42 -27.56485 -49.51439 38271 ft 389 kts 216°
2026-05-05 12:43 -27.61003 -49.54790 38289 ft 388 kts 216°
2026-05-05 12:43 -27.65515 -49.58133 38282 ft 388 kts 217°
2026-05-05 12:44 -27.70025 -49.61480 38282 ft 387 kts 217°
2026-05-05 12:44 -27.74527 -49.64827 38277 ft 387 kts 216°
2026-05-05 12:45 -27.79064 -49.68112 38266 ft 388 kts 215°
2026-05-05 12:45 -27.83643 -49.71345 38266 ft 388 kts 215°
2026-05-05 12:46 -27.88213 -49.74581 38270 ft 388 kts 215°
2026-05-05 12:46 -27.92782 -49.77833 38286 ft 388 kts 216°
2026-05-05 12:47 -27.97340 -49.81092 38280 ft 388 kts 216°
2026-05-05 12:47 -28.01895 -49.84357 38271 ft 387 kts 216°
2026-05-05 12:48 -28.06445 -49.87622 38272 ft 387 kts 216°
2026-05-05 12:48 -28.11000 -49.90890 38274 ft 387 kts 216°
2026-05-05 12:49 -28.15556 -49.94159 38268 ft 387 kts 216°
2026-05-05 12:49 -28.20104 -49.97431 38285 ft 387 kts 216°
2026-05-05 12:50 -28.24659 -50.00711 38275 ft 388 kts 216°
2026-05-05 12:50 -28.29210 -50.03986 38270 ft 388 kts 216°
2026-05-05 12:51 -28.33734 -50.07250 38265 ft 388 kts 216°
2026-05-05 12:51 -28.38285 -50.10532 38259 ft 388 kts 216°
2026-05-05 12:52 -28.42839 -50.13825 38261 ft 388 kts 216°
2026-05-05 12:52 -28.47391 -50.17117 38255 ft 388 kts 216°
2026-05-05 12:53 -28.51945 -50.20412 38265 ft 388 kts 216°
2026-05-05 12:53 -28.56493 -50.23711 38257 ft 388 kts 216°
2026-05-05 12:54 -28.63328 -50.28677 38252 ft 389 kts 216°
2026-05-05 12:55 -28.67867 -50.31974 38242 ft 381 kts 216°
2026-05-05 12:55 -28.70063 -50.33566 38240 ft 368 kts 216°
2026-05-05 12:55 -28.72199 -50.35116 38243 ft 361 kts 217°
2026-05-05 12:56 -28.75083 -50.38369 38230 ft 351 kts 242°
2026-05-05 12:56 -28.75950 -50.40957 38233 ft 352 kts 258°
2026-05-05 12:56 -28.76038 -50.43760 38236 ft 359 kts 274°
2026-05-05 12:56 -28.75292 -50.46506 38236 ft 372 kts 292°
2026-05-05 12:57 -28.73706 -50.48894 38238 ft 388 kts 311°
2026-05-05 12:57 -28.71374 -50.50569 38239 ft 409 kts 332°
2026-05-05 12:57 -28.68523 -50.51174 38237 ft 430 kts 355°
2026-05-05 12:57 -28.65569 -50.50513 38228 ft 445 kts 19°
2026-05-05 12:58 -28.62787 -50.48910 38218 ft 450 kts 25°
2026-05-05 12:58 -28.57462 -50.45080 38215 ft 456 kts 30°
2026-05-05 12:58 -28.54925 -50.42879 38213 ft 463 kts 45°
2026-05-05 12:59 -28.53089 -50.39891 38216 ft 462 kts 68°
2026-05-05 12:59 -28.52293 -50.36398 38213 ft 454 kts 92°
2026-05-05 12:59 -28.52633 -50.32902 38245 ft 441 kts 115°
2026-05-05 13:00 -28.56186 -50.27779 38241 ft 401 kts 162°
2026-05-05 13:00 -28.58757 -50.26881 38247 ft 378 kts 185°
2026-05-05 13:01 -28.65492 -50.30142 38246 ft 356 kts 217°
2026-05-05 13:01 -28.67561 -50.31699 38242 ft 356 kts 217°
2026-05-05 13:01 -28.71722 -50.34786 38242 ft 357 kts 217°
2026-05-05 13:02 -28.75172 -50.38602 38229 ft 349 kts 244°
2026-05-05 13:02 -28.75930 -50.41219 38222 ft 350 kts 261°
2026-05-05 13:02 -28.75883 -50.44007 38219 ft 357 kts 277°
2026-05-05 13:03 -28.74998 -50.46682 38216 ft 370 kts 295°
2026-05-05 13:03 -28.73291 -50.48942 38207 ft 387 kts 315°
2026-05-05 13:03 -28.70872 -50.50417 38205 ft 407 kts 337°
2026-05-05 13:03 -28.67996 -50.50747 38234 ft 430 kts
2026-05-05 13:04 -28.65067 -50.49805 38243 ft 449 kts 21°
2026-05-05 13:04 -28.62283 -50.48125 38241 ft 456 kts 26°
2026-05-05 13:04 -28.56931 -50.44184 38240 ft 460 kts 32°
2026-05-05 13:05 -28.54561 -50.41749 38234 ft 463 kts 53°
2026-05-05 13:05 -28.53051 -50.38530 38247 ft 462 kts 76°
2026-05-05 13:05 -28.52627 -50.34956 38243 ft 453 kts 99°
2026-05-05 13:05 -28.53302 -50.31519 38055 ft 439 kts 122°
2026-05-05 13:06 -28.54916 -50.28758 37805 ft 415 kts 145°
2026-05-05 13:06 -28.57217 -50.26993 37537 ft 388 kts 168°
2026-05-05 13:06 -28.59774 -50.26482 37273 ft 364 kts 192°
2026-05-05 13:06 -28.62124 -50.27235 37013 ft 345 kts 214°
2026-05-05 13:07 -28.64167 -50.28726 36752 ft 344 kts 219°
2026-05-05 13:07 -28.66098 -50.30319 36499 ft 343 kts 220°
2026-05-05 13:07 -28.67997 -50.31898 36249 ft 342 kts 219°
2026-05-05 13:07 -28.69942 -50.33451 36014 ft 341 kts 218°
2026-05-05 13:08 -28.71914 -50.34945 35760 ft 340 kts 217°
2026-05-05 13:08 -28.73773 -50.36533 35486 ft 334 kts 227°
2026-05-05 13:08 -28.75356 -50.38249 34596 ft 347 kts 223°
2026-05-05 13:08 -28.77311 -50.40020 33310 ft 370 kts 219°
2026-05-05 13:09 -28.79436 -50.41727 32627 ft 374 kts 218°
2026-05-05 13:09 -28.81548 -50.43365 32393 ft 375 kts 218°
2026-05-05 13:09 -28.83699 -50.45055 32067 ft 377 kts 219°
2026-05-05 13:09 -28.85884 -50.46822 30749 ft 394 kts 219°
2026-05-05 13:10 -28.88155 -50.48724 29073 ft 415 kts 220°
2026-05-05 13:10 -28.90526 -50.50749 27209 ft 436 kts 220°
2026-05-05 13:10 -28.93000 -50.52879 25788 ft 450 kts 220°
2026-05-05 13:10 -28.95475 -50.55006 25351 ft 438 kts 220°
2026-05-05 13:11 -28.97866 -50.57050 25117 ft 421 kts 220°
2026-05-05 13:11 -29.00172 -50.59009 24882 ft 407 kts 220°
2026-05-05 13:11 -29.02411 -50.60910 24643 ft 393 kts 220°
2026-05-05 13:11 -29.04568 -50.62742 24420 ft 381 kts 220°
2026-05-05 13:12 -29.06665 -50.64530 24207 ft 370 kts 220°
2026-05-05 13:12 -29.08691 -50.66262 23981 ft 359 kts 221°
2026-05-05 13:12 -29.10665 -50.67954 23750 ft 350 kts 221°
2026-05-05 13:12 -29.12546 -50.69657 23488 ft 339 kts 227°
2026-05-05 13:13 -29.14119 -50.71613 23181 ft 331 kts 232°
2026-05-05 13:13 -29.15629 -50.73583 22724 ft 328 kts 232°
2026-05-05 13:13 -29.17129 -50.75538 22268 ft 326 kts 232°
2026-05-05 13:13 -29.18620 -50.77479 21823 ft 323 kts 232°
2026-05-05 13:14 -29.20097 -50.79403 21372 ft 320 kts 232°
2026-05-05 13:14 -29.21563 -50.81308 20938 ft 317 kts 231°
2026-05-05 13:14 -29.23016 -50.83193 20501 ft 314 kts 231°
2026-05-05 13:14 -29.24456 -50.85063 20078 ft 312 kts 231°
2026-05-05 13:15 -29.25884 -50.86923 19554 ft 312 kts 231°
2026-05-05 13:15 -29.27323 -50.88800 19038 ft 313 kts 231°
2026-05-05 13:15 -29.28732 -50.90638 18622 ft 309 kts 231°
2026-05-05 13:15 -29.30161 -50.92505 18211 ft 306 kts 231°
2026-05-05 13:16 -29.31552 -50.94321 17821 ft 301 kts 231°
2026-05-05 13:16 -29.32903 -50.96082 17459 ft 296 kts 231°
2026-05-05 13:16 -29.34249 -50.97836 17088 ft 291 kts 231°
2026-05-05 13:16 -29.35573 -50.99561 16773 ft 286 kts 231°
2026-05-05 13:17 -29.36897 -51.01290 16426 ft 285 kts 231°
2026-05-05 13:17 -29.38188 -51.02979 16072 ft 289 kts 231°
2026-05-05 13:17 -29.39552 -51.04763 15620 ft 303 kts 231°
2026-05-05 13:17 -29.40953 -51.06582 15164 ft 305 kts 231°
2026-05-05 13:18 -29.42358 -51.08399 14725 ft 304 kts 231°
2026-05-05 13:18 -29.43761 -51.10213 14277 ft 303 kts 231°
2026-05-05 13:18 -29.45156 -51.12021 13823 ft 301 kts 231°
2026-05-05 13:18 -29.46558 -51.13838 13323 ft 299 kts 231°
2026-05-05 13:19 -29.47927 -51.15615 12872 ft 295 kts 231°
2026-05-05 13:19 -29.49280 -51.17372 12428 ft 292 kts 231°
2026-05-05 13:19 -29.50601 -51.19092 12009 ft 290 kts 232°
2026-05-05 13:19 -29.51927 -51.20823 11585 ft 287 kts 232°
2026-05-05 13:20 -29.53244 -51.22539 11155 ft 285 kts 232°
2026-05-05 13:20 -29.54552 -51.24242 10730 ft 283 kts 232°
2026-05-05 13:20 -29.55851 -51.25933 10311 ft 281 kts 232°
2026-05-05 13:20 -29.57140 -51.27614 9891 ft 280 kts 232°
2026-05-05 13:21 -29.58424 -51.29287 9449 ft 279 kts 232°
2026-05-05 13:21 -29.59715 -51.30968 8893 ft 279 kts 231°
2026-05-05 13:21 -29.60990 -51.32629 8524 ft 276 kts 231°
2026-05-05 13:21 -29.62375 -51.34153 8117 ft 277 kts 219°
2026-05-05 13:22 -29.64076 -51.35192 7850 ft 279 kts 203°
2026-05-05 13:22 -29.65932 -51.35883 7672 ft 282 kts 201°
2026-05-05 13:22 -29.67798 -51.36573 7462 ft 281 kts 201°
2026-05-05 13:22 -29.69674 -51.37269 7258 ft 280 kts 201°
2026-05-05 13:23 -29.71505 -51.37932 7059 ft 280 kts 197°
2026-05-05 13:23 -29.73436 -51.38335 6598 ft 284 kts 192°
2026-05-05 13:23 -29.75390 -51.38681 6141 ft 283 kts 192°
2026-05-05 13:23 -29.77329 -51.39021 5611 ft 282 kts 192°
2026-05-05 13:24 -29.79253 -51.39358 5124 ft 280 kts 192°
2026-05-05 13:24 -29.81168 -51.39694 4670 ft 277 kts 192°
2026-05-05 13:24 -29.83040 -51.40021 4438 ft 264 kts 192°
2026-05-05 13:24 -29.84799 -51.40327 4327 ft 247 kts 192°
2026-05-05 13:25 -29.86443 -51.40614 4222 ft 231 kts 193°
2026-05-05 13:25 -29.87985 -51.40886 4131 ft 219 kts 193°
2026-05-05 13:25 -29.89480 -51.41007 4030 ft 213 kts 180°
2026-05-05 13:25 -29.90933 -51.40646 3822 ft 215 kts 165°
2026-05-05 13:26 -29.92323 -51.40093 3724 ft 210 kts 165°
2026-05-05 13:26 -29.93704 -51.39554 3658 ft 209 kts 166°
2026-05-05 13:26 -29.95085 -51.39020 3578 ft 209 kts 166°
2026-05-05 13:26 -29.96465 -51.38483 3487 ft 210 kts 164°
2026-05-05 13:27 -29.97757 -51.37632 3156 ft 219 kts 140°
2026-05-05 13:27 -29.98684 -51.36264 2923 ft 217 kts 116°
2026-05-05 13:27 -29.99093 -51.34617 2683 ft 213 kts 92°
2026-05-05 13:27 -29.99137 -51.32908 2405 ft 215 kts 89°
2026-05-05 13:28 -29.99173 -51.31177 2144 ft 214 kts 89°
2026-05-05 13:28 -29.99209 -51.29487 1856 ft 207 kts 89°
2026-05-05 13:28 -29.99243 -51.27870 1576 ft 194 kts 89°
2026-05-05 13:28 -29.99275 -51.26373 1337 ft 181 kts 89°
2026-05-05 13:29 -29.99304 -51.24979 1112 ft 166 kts 89°
2026-05-05 13:29 -29.99329 -51.23720 915 ft 150 kts 90°
2026-05-05 13:29 -29.99353 -51.22548 743 ft 143 kts 90°
2026-05-05 13:29 -29.99376 -51.21415 569 ft 140 kts 90°
2026-05-05 13:30 -29.99402 -51.20299 372 ft 139 kts 90°
2026-05-05 13:30 -29.99421 -51.19190 204 ft 139 kts 90°
2026-05-05 13:30 -29.99444 -51.18082 40 ft 137 kts 91°
2026-05-05 13:30 -29.99463 -51.17124 20 ft 85 kts 91°
2026-05-05 13:31 -29.99469 -51.16799 20 ft 14 kts 90°
2026-05-05 13:31 -29.99417 -51.16743 20 ft 12 kts
2026-05-05 13:31 -29.99351 -51.16739 20 ft 10 kts
2026-05-05 13:31 -29.99287 -51.16758 20 ft 9 kts 308°
2026-05-05 13:32 -29.99278 -51.16847 20 ft 13 kts 270°
2026-05-05 13:32 -29.99275 -51.16958 20 ft 15 kts 273°
2026-05-05 13:32 -29.99273 -51.17089 20 ft 17 kts 269°
2026-05-05 13:32 -29.99271 -51.17199 20 ft 15 kts 270°
2026-05-05 13:33 -29.99268 -51.17315 20 ft 13 kts 272°
2026-05-05 13:33 -29.99252 -51.17382 21 ft 7 kts 318°
2026-05-05 13:33 -29.99201 -51.17385 20 ft 7 kts 22°
2026-05-05 13:33 -29.99176 -51.17351 20 ft 4 kts 43°
2026-05-05 13:34 -29.99149 -51.17348 20 ft 4 kts
2026-05-05 13:34 -29.99123 -51.17348 20 ft 1 kts 358°
2026-05-05 13:34 -29.99122 -51.17348 20 ft 0 kts 358°
2026-05-05 13:36 -29.99130 -51.17348 20 ft 0 kts 359°
2026-05-05 13:36 -29.99453 -51.17665 27 ft 121 kts 91°
2026-05-05 13:36 -29.99416 -51.19465 257 ft 137 kts 89°